Location: Limerick
(52.6800°N, 8.6400°W)
Time: 02:30:32
(UTC+01:00)

Sapphire - Visible Passes

Search period start: 24 August 2016 00:00
Search period end: 03 September 2016 00:00
Orbit: 786 x 795 km, 67.1° (Epoch: 22 August)

Date Brightness Start Highest point End Pass type
(mag) Time Alt. Az. Time Alt. Az. Time Alt. Az.
24 Aug ? 00:16:14 10° WNW 00:19:44 18° WSW 00:21:05 16° SW visible
24 Aug ? 22:00:58 10° NW 22:06:26 80° NE 22:10:33 18° SE visible
24 Aug ? 23:45:08 10° WNW 23:49:18 23° WSW 23:51:17 19° SW visible
25 Aug ? 21:30:19 10° NW 21:35:45 65° NE 21:40:47 12° SE visible
25 Aug ? 23:14:12 10° NW 23:18:50 29° WSW 23:21:31 20° SSW visible
26 Aug ? 22:43:22 10° NW 22:48:21 38° WSW 22:51:48 18° S visible
27 Aug ? 22:12:36 10° NW 22:17:49 48° WSW 22:22:09 15° S visible
28 Aug ? 21:41:52 10° NW 21:47:15 62° WSW 21:52:32 10° SSE visible
28 Aug ? 23:27:32 10° W 23:29:36 12° WSW 23:31:39 10° SW visible
29 Aug ? 21:11:11 10° NW 21:16:39 79° SW 21:22:03 10° SSE visible
29 Aug ? 22:55:57 10° WNW 22:59:13 16° WSW 23:02:29 10° SW visible
30 Aug ? 22:24:48 10° WNW 22:28:48 21° WSW 22:32:48 10° SSW visible
31 Aug ? 21:53:49 10° NW 21:58:21 28° WSW 22:02:52 10° SSW visible
01 Sep ? 21:22:57 10° NW 21:27:52 35° WSW 21:32:44 10° S visible
02 Sep ? 20:52:11 10° NW 20:57:21 45° WSW 21:02:28 10° S visible
